Regional Weather Roundup
Issued by NWS Wakefield, VA

Home | Current Version | Previous Version | Graphics & Text | Print | Product List | Glossary On
Versions: 1 2 3 4 5 6 7 8 9 10 11 12 13 14 15 16 17 18 19 20 21 22 23 24 25 26 27 28 29 30 31 32 33 34 35 36 37 38 39 40 41 42 43 44 45 46 47 48 49 50
000
ASUS41 KAKQ 201010
RWRAKQ

REGIONAL WEATHER ROUNDUP
NATIONAL WEATHER SERVICE WAKEFIELD VA
600 AM EDT SAT SEP 20 2014

Note: "fair" indicates few or no clouds below 12,000 feet with no
significant weather and/or obstructions to visibility. * = Denotes
station may not report precipitation (e.g., rain,snow,etc.),
thunder or fog.

VAZ042-051-052>054-056-201100-
NORTHERN VIRGINIA

CITY           SKY/WX    TMP DP  RH WIND       PRES   REMARKS
WASH NATIONAL  MOCLDY    65  59  81 CALM      30.26S
DULLES         PTCLDY    57  57 100 CALM      30.26S
FORT BELVOIR   MOCLDY    60  59  96 SE5       30.26S
QUANTICO       CLOUDY    65  62  90 SE3       30.26S
FREDERICKSBRG* CLOUDY    59  59 100 E5        30.24F
STAFFORD*      CLOUDY    57  57 100 CALM      30.29S FOG
WARRENTON      FOG       56  56 100 SE3       30.26R VSB 1/4
CULPEPER*      FOG       57  55  94 CALM      30.27S VSB 1
MANASSAS*      PTCLDY    59  59 100 CALM      30.26S
LEESBURG*      CLOUDY    61  61 100 SW3       30.27S
WINCHESTER     CLEAR     59  55  88 SE6       30.25R
FRONT ROYAL*   CLOUDY    63  57  82 S3        30.24S
LURAY*         CLOUDY    63  59  88 CALM      30.25S
$$

VAZ048-049-060>072-079>083-201100-
CENTRAL AND SOUTH CENTRAL VIRGINIA...AND NORTH CENTRAL NORTH CAROLINA

CITY           SKY/WX    TMP DP  RH WIND       PRES   REMARKS
RICHMOND       PTCLDY    59  56  89 N5        30.24R
CHESTERFIELD*  SUNNY    N/A N/A N/A NW6       30.25R
PETERSBURG*    CLEAR     51  50  96 CALM      30.24R
HANOVER        CLEAR     55  54  96 CALM      30.27R FOG
TAPPAHANNOCK*  CLEAR     53  52  94 CALM      30.24F FOG
CHARLOTTSVILLE PTCLDY    59  57  93 CALM      30.26R FOG
ORANGE*          N/A     55  54  94 CALM      30.28R FOG
LOUISA*        FOG       57  55  94 CALM      30.25S VSB 1
FARMVILLE*     CLOUDY    63  61  94 NW5       30.24R
CREWE*         CLOUDY    56  55  94 CALM      30.24S
FORT PICKETT*  SUNNY     56  56  98 N3        30.24R
LUNENBURG*     PTSUNNY   58  57  96 N5        30.24R
SOUTH HILL*    PTCLDY    57  57 100 N5        30.28S
LAWRENCEVILLE* SUNNY     57  56  97 N5        30.23R
ROANOKE RAPIDS SUNNY     54  54 100 CALM      30.21R FOG
RALEIGH        CLEAR     58  56  93 CALM      30.21R
$$

VAZ088>098-201100-
SOUTHEAST VIRGINIA

CITY           SKY/WX    TMP DP  RH WIND       PRES   REMARKS
NORFOLK        CLEAR     70  63  78 E9        30.19S
VIRGINIA BEACH PTCLDY    70  64  81 E10       30.19S
NORFOLK NAVAL  PTCLDY    71  64  78 E9        30.21S
WEST POINT*    CLEAR     57  55  93 CALM      30.25S
NEWPORT NEWS   CLEAR     63  59  87 N5        30.21R
LANGLEY AFB    CLEAR     69  66  92 E6        30.20S
FORT EUSTIS    CLEAR     63 N/A N/A CALM      30.20R
WILLIAMSBURG*  CLEAR     63  61  94 CALM      30.23R
HR EXEC AP*    SUNNY     52  48  87 CALM      30.22S
FRANKLIN*      CLEAR     55  55 100 CALM      30.21R
WAKEFIELD      CLEAR     57  54  89 CALM      30.21S FOG
$$

VAZ020-022-025-037-045-201100-
WEST CENTRAL AND SOUTHWEST VIRGINIA

CITY           SKY/WX    TMP DP  RH WIND       PRES   REMARKS
STAUNTON*      PTCLDY    59  54  83 CALM      30.28S
HOT SPRINGS VA CLOUDY    51  49  93 S8        30.32S
LYNCHBURG      CLOUDY    60  59  96 CALM      30.27S
DANVILLE       PTCLDY    58  55  90 CALM      30.24S FOG
SOUTH BOSTON*  NOT AVBL
MARTINSVILLE   CLOUDY    61  61 100 CALM      30.27S
ROANOKE        CLOUDY    60  58  92 CALM      30.28S
BLACKSBURG     CLOUDY    57  57 100 E3        30.29S FOG
DUBLIN*        CLOUDY    58  58 100 CALM      30.28R FOG
MARION*        CLOUDY    62  57  84 NE8       30.28S
HILLSVILLE*    CLOUDY    56  55  95 CALM      30.28S
RICHLANDS*     SUNNY     63  57  80 SE5       30.23S
WISE*          CLEAR     61  54  77 S8        30.23S
ABINGDON*      CLEAR     60  56  88 E6        30.23R
$$

MDZ021>025-VAZ099-100-201100-
SOUTHERN MARYLAND AND THE DELMARVA PENINSULA

CITY           SKY/WX    TMP DP  RH WIND       PRES   REMARKS
PATUXENT RIVER PTCLDY    61  59  93 NE5       30.24S
BAY BRIDGE APT   N/A     63  59  88 E3        30.26F
LEONARDTOWN      N/A     57  55  94 CALM      30.26S VSB 1
DOVER          MOCLDY    65  61  87 NW1       30.25S
GEORGETOWN     CLEAR     57  54  89 CALM      30.27R
EASTON         PTCLDY    61  61 100 CALM      30.30R
CAMBRIDGE      CLEAR     59  55  88 CALM      30.25S
SALISBURY      CLEAR     59  55  87 CALM      30.25R
OCEAN CITY     PTCLDY    70  61  73 SE12      30.24S
WALLOPS ISLAND MOCLDY    69  63  81 E5        30.24S
ACCOMACK*      CLEAR     63  59  88 E5        30.22S
$$

NCZ012>017-030>032-201100-
EASTERN NORTH CAROLINA

CITY           SKY/WX    TMP DP  RH WIND       PRES   REMARKS
ELIZABETH CITY CLEAR     67  64  90 NE8       30.18S
AHOSKIE*       CLEAR     56  54  94 CALM      30.20R
EDENTON*       CLEAR     60  58  95 NE3       30.18S
CURRITUCK*     CLEAR     71  62  73 NE7       30.19S
KILL DEVIL HLS MOCLDY    72  67  84 NE9       30.15S
MANTEO         MOCLDY    71  67  89 NE15      30.16S
CAPE HATTERAS  CLOUDY    70  69  97 NE10G18   30.12S
TARBORO*       SUNNY     60  58  92 CALM      30.20R
GOLDSBORO      CLEAR     61  61  98 CALM      30.16R
WASHINGTON     MOCLDY    61  59  94 NE6       30.17R
GREENVILLE     CLEAR     59  59 100 CALM      30.19R
NEW BERN       CLOUDY    67  62  84 N7        30.16R
WILMINGTON     CLOUDY    65  61  87 NE13      30.10F
$$

VAZ048-201100-
ELSEWHERE

CITY           SKY/WX    TMP DP  RH WIND       PRES   REMARKS
HARRISBURG PA  CLOUDY    60  55  83 E5        30.27R
BALTIMORE      PTCLDY    62  60  93 CALM      30.26S
ANNAPOLIS      MOCLDY    68  62  81 SE9       30.25F
ANDREWS AFB    MOCLDY    58  58  99 E5        30.26R
WILMINGTON DE  CLOUDY    61  57  87 E5        30.29S
PHILADELPHIA   MOCLDY    59  54  83 NE6       30.30S
WILDWOOD NJ*   PTCLDY    66  55  68 E6        30.28S
ATLANTIC CITY  CLEAR     53  52  96 CALM      30.29R
HENDERSON NC   CLEAR     59  56  92 N6        30.23R
GREENSBORO     PTCLDY    59  58  96 N5        30.22R FOG
ROCKY MOUNT    CLEAR     60  57  89 CALM      30.19S
FAYETTEVILLE   PTCLDY    61  58  90 N7        30.16R
CHARLOTTE      CLEAR     61  57  87 N5        30.20R
$$

VAZ100-201100-
MARINE

STATION/POSITION TIME  TEMP    WIND        PRES    WAVE   SWELL
                       AIR SEA DIR/SP/G            HT/PER HT/PER
                 (UTC) (F)     (DEG/KT/KT) (MB)    (FT/S) (FT/S)
44066 TX TWR #4  1000   67 72  110/ 10/ 14 1026.2R   4/ 8   3/ 8
CAPE MAY NJ      1000   67 74  110/  5/  7 1024.5R
LEWES DE         1000   69 71  130/  5/  7 1024.4S
15NM E FENWICK I 1000   71 71              1023.6F   5/ 7
OCEAN-CITY-INLET 1000   70 71  130/ 10/ 14 1023.6F
WACHAPREAGUE VA  1000   71 73   90/  9/ 13 1023.3S
THOMAS POINT MD  1000   67 73  130/  8/  9 1025.5F
GOOSES REEF MD   1000   67     100/  6/  6 1025.0S
COVE POINT MD    1000   66      90/  6/  7 1024.3R
SOLOMONS ISLAND  1000      75                N/A
BISHOPS HEAD MD  1000   65 71   30/  7/  9 1023.7S
PINEY POINT MD   1000           70/  4/  5   N/A
POTOMAC MD       1000   71      90/  8/ 10 1023.4S
CAMBRIDGE MD     1000   65 74   60/  3/  4 1024.3R
LEWISETTA VA     1000   67 73  190/  2/  2 1023.5F
RAPPAHANNOCK LGT 1000           70/  9/ 11 1023.7R
STINGRAY PT      1000   71     110/ 12/ 14   N/A
YORK RVR RNG VA  1000   71     110/ 13/ 15 1022.4R
YORKTOWN VA      1000   72 76   90/ 10/ 12 1022.7R
JAMESTOWN VA     1000   62      40/  4/  6   N/A
DOMINION TERM VA 1000   72      80/ 12/ 19 1022.6S
KIPTOPEKE VA     1000      78  100/  6/ 11   N/A
CHES BAY BRIDGE  1000   72 75   70/ 19/ 21 1022.0S
CAPE HENRY VA    1000   72      80/ 21/ 24 1021.2S
CHESAPEAKE LGHT  0900   72      70/ 22/ 23 1022.7F
WILLOUBY STN VA  1000   72      80/ 13/ 15 1021.1S
S CRANEY ISL VA  1000           50/  8/ 11 1022.2S
CAPE HENRY BUOY  1000      75                N/A     5/ 5
1ST LANDING BUOY 1000   72      90/ 17/ 21 1022.1F
CAPE CHARLES BUO 1000      75                N/A     5/ 5   2/10
OFFSHORE WE BUOY 1000      74                N/A     6/ 6   2/20
64NM E OF VA BCH 1000   73 76   40/ 17/ 21 1021.1R   7/ 8
DUCK PIER NC     1000   72 74   50/ 21/ 23 1020.9S
44100 DUCK FRF   0900      74                N/A     5/ 6
44056 DUCK FRF   0900                        N/A     5/ 5
OREGON INLET NC  1000   73 73   40/ 15/ 19 1020.8S
HATTERAS NC      1000   73 73   30/ 11/ 17 1020.2S
DIAMOND SHLS NC  1000   78      70/ 17/ 21 1018.6S   6/ 8   3/ 8
CAPE LOOKOUT NC  0900   72      20/ 17/ 20 1019.2F
$$



USA.gov is the U.S. government's official web portal to all federal, state and local government web resources and services.